| time (UTC) | temp F | wind direction | speed MPH | gust MPH | rain 1hr in | rain 24hr in | rain mn in | humidity % | barometer mb |
| 20260507082935 | 61 | 199 | 5.0 | 7.0 | 0.00 | 0.16 | 0.09 | 85 | 1015.6 |
| 20260507082434 | 60 | 133 | 4.0 | 7.0 | 0.00 | 0.16 | 0.09 | 85 | 1015.5 |
| 20260507081938 | 60 | 127 | 5.0 | 7.0 | 0.00 | 0.16 | 0.09 | 86 | 1015.5 |
| 20260507081433 | 60 | 203 | 5.0 | 7.0 | 0.00 | 0.16 | 0.09 | 87 | 1015.5 |
| 20260507080933 | 60 | 200 | 5.0 | 11.0 | 0.00 | 0.16 | 0.09 | 87 | 1015.5 |
| 20260507080432 | 59 | 207 | 5.0 | 11.0 | 0.00 | 0.16 | 0.09 | 86 | 1015.6 |
| 20260507075931 | 59 | 157 | 5.0 | 11.0 | 0.00 | 0.16 | 0.09 | 89 | 1015.7 |
| 20260507075432 | 59 | 130 | 4.0 | 7.0 | 0.00 | 0.16 | 0.09 | 90 | 1015.6 |
| 20260507074930 | 58 | 189 | 4.0 | 6.0 | 0.00 | 0.16 | 0.09 | 90 | 1015.6 |
| 20260507074432 | 58 | 176 | 4.0 | 6.0 | 0.00 | 0.16 | 0.09 | 90 | 1015.7 |
| 20260507073429 | 57 | 202 | 6.0 | 7.0 | 0.00 | 0.16 | 0.09 | 89 | 1015.6 |
| 20260507072931 | 57 | 162 | 3.0 | 5.0 | 0.00 | 0.16 | 0.09 | 90 | 1015.6 |
| 20260507071933 | 57 | 144 | 4.0 | 9.0 | 0.00 | 0.16 | 0.09 | 90 | 1015.6 |
| 20260507071429 | 57 | 131 | 5.0 | 9.0 | 0.00 | 0.16 | 0.09 | 91 | 1015.6 |
| 20260507070930 | 57 | 186 | 6.0 | 7.0 | 0.00 | 0.16 | 0.09 | 90 | 1015.5 |
| 20260507070430 | 57 | 204 | 4.0 | 9.0 | 0.00 | 0.16 | 0.09 | 93 | 1015.5 |
| 20260507065930 | 57 | 193 | 4.0 | 10.0 | 0.00 | 0.16 | 0.09 | 93 | 1015.5 |
| 20260507065429 | 56 | 55 | 4.0 | 10.0 | 0.00 | 0.16 | 0.09 | 93 | 1015.4 |
| 20260507064428 | 56 | 206 | 6.0 | 10.0 | 0.00 | 0.16 | 0.09 | 93 | 1015.4 |
| 20260507063929 | 56 | 178 | 6.0 | 7.0 | 0.00 | 0.16 | 0.09 | 93 | 1015.3 |
| 20260507062429 | 55 | 154 | 3.0 | 6.0 | 0.00 | 0.16 | 0.09 | 93 | 1015.3 |
| 20260507061928 | 55 | 183 | 3.0 | 6.0 | 0.00 | 0.16 | 0.09 | 93 | 1015.3 |
| 20260507061429 | 55 | 200 | 4.0 | 6.0 | 0.00 | 0.16 | 0.09 | 93 | 1015.2 |
| 20260507060928 | 55 | 214 | 3.0 | 6.0 | 0.00 | 0.16 | 0.09 | 93 | 1015.3 |
| 20260507060426 | 55 | 234 | 4.0 | 7.0 | 0.00 | 0.16 | 0.09 | 93 | 1015.3 |
| 20260507055928 | 55 | 113 | 5.0 | 7.0 | 0.00 | 0.16 | 0.09 | 93 | 1015.2 |
| 20260507055428 | 55 | 145 | 5.0 | 6.0 | 0.00 | 0.16 | 0.09 | 94 | 1015.3 |
| 20260507054927 | 54 | 183 | 4.0 | 6.0 | 0.00 | 0.16 | 0.09 | 94 | 1015.2 |
| 20260507054431 | 54 | 147 | 4.0 | 6.0 | 0.00 | 0.16 | 0.09 | 94 | 1015.3 |
| 20260507053927 | 54 | 172 | 4.0 | 9.0 | 0.00 | 0.16 | 0.09 | 94 | 1015.1 |
| 20260507053432 | 54 | 164 | 5.0 | 9.0 | 0.00 | 0.16 | 0.09 | 94 | 1015.1 |
| 20260507052928 | 54 | 185 | 4.0 | 6.0 | 0.00 | 0.16 | 0.09 | 94 | 1015.1 |
| 20260507052431 | 54 | 154 | 4.0 | 10.0 | 0.00 | 0.16 | 0.09 | 94 | 1014.9 |
| 20260507051915 | 54 | 185 | 4.0 | 10.0 | 0.00 | 0.16 | 0.09 | 94 | 1014.9 |
| 20260507051415 | 54 | 168 | 3.0 | 7.0 | 0.00 | 0.16 | 0.09 | 94 | 1014.9 |
| 20260507050905 | 54 | 157 | 3.0 | 9.0 | 0.00 | 0.16 | 0.09 | 94 | 1014.9 |
| 20260507050406 | 54 | 188 | 6.0 | 9.0 | 0.00 | 0.16 | 0.09 | 94 | 1014.9 |
| 20260507045904 | 54 | 221 | 2.0 | 7.0 | 0.00 | 0.16 | 0.09 | 94 | 1014.9 |
| 20260507045358 | 54 | 226 | 3.0 | 11.0 | 0.00 | 0.16 | 0.09 | 94 | 1014.7 |
| 20260507044856 | 53 | 113 | 5.0 | 11.0 | 0.00 | 0.16 | 0.09 | 94 | 1014.7 |
| 20260507044348 | 53 | 172 | 6.0 | 13.0 | 0.00 | 0.16 | 0.09 | 94 | 1014.6 |
| 20260507043848 | 53 | 124 | 6.0 | 13.0 | 0.00 | 0.16 | 0.09 | 94 | 1014.6 |
| 20260507043340 | 53 | 142 | 4.0 | 6.0 | 0.00 | 0.16 | 0.09 | 94 | 1014.6 |
| 20260507042847 | 54 | 145 | 4.0 | 9.0 | 0.00 | 0.16 | 0.09 | 94 | 1014.5 |
| 20260507042338 | 54 | 186 | 4.0 | 9.0 | 0.00 | 0.16 | 0.09 | 94 | 1014.5 |
| 20260507041836 | 54 | 216 | 2.0 | 10.0 | 0.00 | 0.16 | 0.09 | 94 | 1014.5 |
| 20260507041333 | 53 | 155 | 7.0 | 10.0 | 0.00 | 0.16 | 0.09 | 94 | 1014.3 |
| 20260507040837 | 53 | 188 | 6.0 | 10.0 | 0.00 | 0.16 | 0.09 | 94 | 1014.4 |
| 20260507040323 | 53 | 193 | 5.0 | 10.0 | 0.00 | 0.16 | 0.09 | 94 | 1014.3 |
| 20260507035813 | 53 | 149 | 5.0 | 10.0 | 0.00 | 0.16 | 0.09 | 94 | 1014.2 |
| 20260507035318 | 53 | 200 | 7.0 | 10.0 | 0.00 | 0.16 | 0.09 | 94 | 1014.2 |
| 20260507034758 | 54 | 209 | 5.0 | 9.0 | 0.00 | 0.16 | 0.09 | 94 | 1014.3 |
| 20260507034242 | 54 | 196 | 4.0 | 11.0 | 0.00 | 0.16 | 0.09 | 94 | 1014.2 |
| 20260507033739 | 54 | 185 | 5.0 | 11.0 | 0.00 | 0.16 | 0.09 | 94 | 1014.2 |
| 20260507033233 | 54 | 219 | 4.0 | 9.0 | 0.00 | 0.16 | 0.09 | 94 | 1014.2 |
| 20260507032735 | 54 | 192 | 6.0 | 9.0 | 0.00 | 0.16 | 0.09 | 94 | 1014.1 |
| 20260507032231 | 54 | 206 | 5.0 | 9.0 | 0.00 | 0.16 | 0.09 | 94 | 1014.2 |
| 20260507031730 | 54 | 183 | 4.0 | 9.0 | 0.00 | 0.16 | 0.09 | 94 | 1014.1 |
| 20260507025658 | 54 | 168 | 7.0 | 10.0 | 0.00 | 0.16 | 0.09 | 94 | 1014.1 |
| 20260507025157 | 54 | 162 | 5.0 | 10.0 | 0.00 | 0.16 | 0.09 | 94 | 1014.1 |
| 20260507024154 | 54 | 190 | 4.0 | 10.0 | 0.00 | 0.16 | 0.09 | 94 | 1014.2 |
| 20260507023648 | 54 | 162 | 5.0 | 10.0 | 0.00 | 0.16 | 0.09 | 94 | 1014.2 |
| 20260507023153 | 54 | 192 | 5.0 | 7.0 | 0.00 | 0.16 | 0.09 | 94 | 1014.1 |
| 20260507022636 | 54 | 172 | 3.0 | 7.0 | 0.00 | 0.16 | 0.09 | 94 | 1014.1 |
| 20260507021624 | 54 | 138 | 5.0 | 12.0 | 0.00 | 0.16 | 0.09 | 94 | 1014.0 |
| 20260507021138 | 54 | 137 | 5.0 | 12.0 | 0.00 | 0.16 | 0.09 | 94 | 1014.0 |
| 20260507020629 | 54 | 123 | 6.0 | 12.0 | 0.01 | 0.16 | 0.09 | 94 | 1014.0 |
| 20260507020123 | 54 | 159 | 6.0 | 12.0 | 0.01 | 0.16 | 0.09 | 94 | 1014.0 |
| 20260507015624 | 54 | 138 | 6.0 | 12.0 | 0.01 | 0.16 | 0.09 | 93 | 1014.0 |
| 20260507015123 | 54 | 192 | 6.0 | 11.0 | 0.01 | 0.17 | 0.09 | 93 | 1013.9 |
| 20260507014619 | 54 | 154 | 6.0 | 12.0 | 0.01 | 0.19 | 0.09 | 93 | 1014.0 |
| 20260507014119 | 54 | 148 | 7.0 | 12.0 | 0.01 | 0.20 | 0.09 | 93 | 1014.1 |
| 20260507013631 | 54 | 137 | 8.0 | 13.0 | 0.01 | 0.20 | 0.09 | 93 | 1014.0 |
| 20260507012601 | 54 | 144 | 7.0 | 12.0 | 0.03 | 0.20 | 0.09 | 93 | 1014.2 |
| 20260507012058 | 54 | 190 | 6.0 | 9.0 | 0.04 | 0.20 | 0.09 | 93 | 1014.2 |
| 20260507011555 | 54 | 196 | 3.0 | 9.0 | 0.05 | 0.20 | 0.09 | 93 | 1014.2 |
| 20260507011058 | 54 | 148 | 3.0 | 9.0 | 0.06 | 0.20 | 0.09 | 93 | 1014.2 |
| 20260507010550 | 54 | 257 | 4.0 | 7.0 | 0.05 | 0.20 | 0.09 | 93 | 1014.2 |
| 20260507010045 | 55 | 200 | 4.0 | 9.0 | 0.06 | 0.14 | 0.09 | 93 | 1014.2 |
| 20260507005527 | 55 | 203 | 6.0 | 10.0 | 0.06 | 0.14 | 0.09 | 93 | 1014.2 |
| 20260507005040 | 55 | 204 | 6.0 | 10.0 | 0.06 | 0.14 | 0.09 | 93 | 1014.0 |
| 20260507004536 | 55 | 147 | 4.0 | 7.0 | 0.06 | 0.14 | 0.09 | 93 | 1014.1 |
| 20260507003951 | 55 | 154 | 4.0 | 9.0 | 0.07 | 0.14 | 0.09 | 93 | 1014.0 |
| 20260507003446 | 55 | 141 | 5.0 | 9.0 | 0.07 | 0.14 | 0.09 | 93 | 1014.0 |
| 20260507002944 | 56 | 166 | 5.0 | 11.0 | 0.06 | 0.14 | 0.07 | 93 | 1014.0 |
| 20260507002438 | 56 | 173 | 6.0 | 11.0 | 0.05 | 0.14 | 0.06 | 93 | 1013.9 |
| 20260507001943 | 56 | 157 | 7.0 | 11.0 | 0.05 | 0.14 | 0.06 | 93 | 1014.0 |
| 20260507001444 | 56 | 151 | 5.0 | 9.0 | 0.04 | 0.14 | 0.05 | 93 | 1014.0 |
| 20260507000922 | 56 | 207 | 5.0 | 9.0 | 0.03 | 0.14 | 0.04 | 93 | 1014.1 |
| 20260507000428 | 56 | 195 | 4.0 | 9.0 | 0.02 | 0.14 | 0.03 | 93 | 1014.2 |
| 20260506235921 | 56 | 141 | 4.0 | 9.0 | 0.02 | 0.12 | 0.03 | 93 | 1014.2 |
| 20260506235414 | 56 | 189 | 3.0 | 6.0 | 0.02 | 0.12 | 0.03 | 93 | 1014.2 |
| 20260506234913 | 56 | 164 | 4.0 | 9.0 | 0.02 | 0.12 | 0.02 | 93 | 1014.1 |
| 20260506234403 | 56 | 162 | 4.0 | 11.0 | 0.02 | 0.12 | 0.02 | 93 | 1014.1 |
| 20260506233906 | 56 | 190 | 5.0 | 11.0 | 0.02 | 0.12 | 0.02 | 93 | 1014.1 |
| 20260506233355 | 56 | 157 | 5.0 | 12.0 | 0.02 | 0.12 | 0.02 | 93 | 1014.1 |
| 20260506232853 | 56 | 204 | 8.0 | 12.0 | 0.02 | 0.12 | 0.02 | 93 | 1014.0 |
| 20260506232355 | 57 | 209 | 8.0 | 12.0 | 0.01 | 0.12 | 0.01 | 93 | 1014.1 |
| 20260506231852 | 57 | 206 | 5.0 | 11.0 | 0.01 | 0.12 | 0.01 | 92 | 1014.1 |
| 20260506231350 | 57 | 149 | 6.0 | 13.0 | 0.01 | 0.12 | 0.01 | 92 | 1014.1 |
| 20260506230832 | 57 | 164 | 10.0 | 13.0 | 0.01 | 0.12 | 0.01 | 92 | 1014.0 |
| 20260506230330 | 57 | 203 | 6.0 | 13.0 | 0.01 | 0.12 | 0.01 | 92 | 1014.0 |
| 20260506225826 | 57 | 199 | 8.0 | 14.0 | 0.01 | 0.11 | 0.01 | 92 | 1014.1 |
| 20260506225329 | 57 | 197 | 10.0 | 15.0 | 0.01 | 0.11 | 0.01 | 92 | 1014.1 |
| 20260506224821 | 57 | 197 | 11.0 | 15.0 | 0.01 | 0.11 | 0.01 | 92 | 1014.2 |
| 20260506224323 | 57 | 199 | 10.0 | 16.0 | 0.00 | 0.11 | 0.00 | 92 | 1014.1 |
| 20260506223817 | 58 | 189 | 9.0 | 16.0 | 0.00 | 0.11 | 0.00 | 91 | 1014.3 |
| 20260506223315 | 58 | 203 | 9.0 | 14.0 | 0.00 | 0.11 | 0.00 | 91 | 1014.4 |
| 20260506222815 | 58 | 182 | 6.0 | 11.0 | 0.00 | 0.11 | 0.00 | 91 | 1014.4 |
| 20260506221816 | 58 | 212 | 5.0 | 9.0 | 0.00 | 0.11 | 0.00 | 91 | 1014.4 |
| 20260506221251 | 58 | 140 | 6.0 | 11.0 | 0.00 | 0.11 | 0.00 | 91 | 1014.4 |
| 20260506220748 | 58 | 199 | 7.0 | 15.0 | 0.00 | 0.11 | 0.00 | 91 | 1014.3 |
| 20260506220309 | 58 | 230 | 7.0 | 15.0 | 0.00 | 0.11 | 0.00 | 91 | 1014.2 |
| 20260506215734 | 58 | 209 | 9.0 | 12.0 | 0.00 | 0.11 | 0.11 | 91 | 1014.1 |
| 20260506215231 | 58 | 182 | 6.0 | 10.0 | 0.00 | 0.11 | 0.11 | 91 | 1014.3 |
| 20260506214236 | 58 | 190 | 3.0 | 11.0 | 0.00 | 0.11 | 0.11 | 91 | 1014.3 |
| 20260506213720 | 58 | 206 | 3.0 | 11.0 | 0.00 | 0.11 | 0.11 | 91 | 1014.3 |
| 20260506213219 | 58 | 202 | 7.0 | 15.0 | 0.00 | 0.11 | 0.11 | 91 | 1014.2 |
| 20260506212716 | 58 | 175 | 10.0 | 15.0 | 0.00 | 0.11 | 0.11 | 91 | 1014.2 |
| 20260506212223 | 58 | 213 | 9.0 | 15.0 | 0.00 | 0.11 | 0.11 | 91 | 1014.2 |
| 20260506211209 | 58 | 169 | 8.0 | 13.0 | 0.00 | 0.11 | 0.11 | 90 | 1014.3 |
| 20260506210705 | 58 | 169 | 6.0 | 9.0 | 0.00 | 0.11 | 0.11 | 90 | 1014.5 |
| 20260506205703 | 58 | 226 | 5.0 | 7.0 | 0.00 | 0.11 | 0.11 | 90 | 1014.4 |
| 20260506204154 | 58 | 212 | 4.0 | 14.0 | 0.00 | 0.11 | 0.11 | 89 | 1014.3 |
| 20260506203656 | 58 | 173 | 8.0 | 17.0 | 0.00 | 0.11 | 0.11 | 89 | 1014.4 |
| 20260506202634 | 58 | 214 | 10.0 | 15.0 | 0.00 | 0.11 | 0.11 | 89 | 1014.3 |
| 20260506202129 | 58 | 214 | 6.0 | 13.0 | 0.00 | 0.11 | 0.11 | 89 | 1014.3 |
| 20260506201624 | 58 | 200 | 7.0 | 13.0 | 0.00 | 0.11 | 0.11 | 90 | 1014.3 |
| 20260506201123 | 58 | 261 | 6.0 | 14.0 | 0.00 | 0.11 | 0.11 | 90 | 1014.2 |
| 20260506200619 | 58 | 212 | 8.0 | 14.0 | 0.00 | 0.11 | 0.11 | 90 | 1014.1 |
| 20260506200109 | 58 | 228 | 5.0 | 12.0 | 0.00 | 0.11 | 0.11 | 89 | 1014.0 |
| 20260506195643 | 58 | 172 | 9.0 | 15.0 | 0.00 | 0.11 | 0.11 | 89 | 1013.9 |
| 20260506194101 | 58 | 221 | 5.0 | 11.0 | 0.00 | 0.11 | 0.11 | 89 | 1013.8 |
| 20260506193603 | 58 | 210 | 6.0 | 11.0 | 0.01 | 0.11 | 0.11 | 89 | 1013.8 |
| 20260506193053 | 58 | 199 | 8.0 | 14.0 | 0.01 | 0.11 | 0.11 | 89 | 1013.7 |
| 20260506192607 | 58 | 161 | 8.0 | 14.0 | 0.02 | 0.11 | 0.11 | 89 | 1013.6 |
| 20260506192043 | 58 | 221 | 10.0 | 14.0 | 0.02 | 0.11 | 0.11 | 89 | 1013.5 |
| 20260506191546 | 58 | 233 | 6.0 | 15.0 | 0.02 | 0.11 | 0.11 | 89 | 1013.6 |
| 20260506191048 | 58 | 210 | 9.0 | 15.0 | 0.02 | 0.11 | 0.11 | 89 | 1013.5 |
| 20260506190545 | 58 | 210 | 7.0 | 14.0 | 0.02 | 0.11 | 0.11 | 89 | 1013.6 |
| 20260506190036 | 58 | 195 | 7.0 | 13.0 | 0.02 | 0.09 | 0.11 | 89 | 1013.6 |
| 20260506185541 | 58 | 238 | 7.0 | 13.0 | 0.02 | 0.09 | 0.11 | 89 | 1013.5 |
| 20260506185031 | 58 | 155 | 8.0 | 11.0 | 0.02 | 0.09 | 0.11 | 89 | 1013.4 |
| 20260506184509 | 58 | 175 | 7.0 | 12.0 | 0.02 | 0.09 | 0.11 | 89 | 1013.4 |
| 20260506184001 | 58 | 213 | 8.0 | 12.0 | 0.02 | 0.09 | 0.10 | 88 | 1013.4 |
| 20260506183442 | 59 | 207 | 5.0 | 11.0 | 0.02 | 0.09 | 0.10 | 88 | 1013.5 |
| 20260506182425 | 59 | 189 | 6.0 | 12.0 | 0.00 | 0.09 | 0.09 | 86 | 1013.3 |
| 20260506181421 | 60 | 182 | 7.0 | 15.0 | 0.00 | 0.09 | 0.09 | 85 | 1013.3 |
| 20260506180914 | 59 | 219 | 10.0 | 16.0 | 0.00 | 0.09 | 0.09 | 85 | 1013.3 |
| 20260506180414 | 60 | 158 | 11.0 | 19.0 | 0.00 | 0.09 | 0.09 | 85 | 1013.4 |
| 20260506175912 | 60 | 217 | 11.0 | 20.0 | 0.00 | 0.09 | 0.09 | 85 | 1013.3 |
| 20260506174854 | 60 | 180 | 10.0 | 19.0 | 0.00 | 0.09 | 0.09 | 85 | 1013.3 |
| 20260506174349 | 60 | 199 | 14.0 | 18.0 | 0.00 | 0.09 | 0.09 | 84 | 1013.3 |
| 20260506173845 | 60 | 230 | 11.0 | 16.0 | 0.00 | 0.09 | 0.09 | 84 | 1013.4 |
| 20260506173342 | 60 | 203 | 9.0 | 15.0 | 0.00 | 0.09 | 0.09 | 84 | 1013.4 |
| 20260506172846 | 60 | 203 | 7.0 | 18.0 | 0.00 | 0.09 | 0.09 | 84 | 1013.4 |
| 20260506172343 | 60 | 223 | 7.0 | 18.0 | 0.00 | 0.09 | 0.09 | 84 | 1013.3 |
| 20260506171833 | 60 | 227 | 8.0 | 15.0 | 0.00 | 0.09 | 0.09 | 84 | 1013.3 |
| 20260506171348 | 60 | 166 | 9.0 | 15.0 | 0.00 | 0.09 | 0.09 | 84 | 1013.3 |
| 20260506165335 | 60 | 197 | 12.0 | 21.0 | 0.00 | 0.09 | 0.09 | 84 | 1013.2 |
| 20260506164832 | 60 | 207 | 16.0 | 21.0 | 0.00 | 0.09 | 0.09 | 83 | 1013.1 |
| 20260506164329 | 60 | 204 | 8.0 | 17.0 | 0.00 | 0.09 | 0.09 | 85 | 1013.2 |
| 20260506163823 | 60 | 227 | 11.0 | 17.0 | 0.00 | 0.09 | 0.09 | 85 | 1013.2 |
| 20260506163318 | 60 | 224 | 10.0 | 16.0 | 0.00 | 0.09 | 0.09 | 85 | 1013.2 |
| 20260506162312 | 60 | 200 | 14.0 | 23.0 | 0.00 | 0.09 | 0.09 | 85 | 1013.3 |
| 20260506161811 | 61 | 175 | 11.0 | 17.0 | 0.00 | 0.09 | 0.09 | 85 | 1013.3 |
| 20260506161312 | 61 | 200 | 8.0 | 13.0 | 0.00 | 0.09 | 0.09 | 85 | 1013.2 |
| 20260506160812 | 61 | 186 | 9.0 | 17.0 | 0.00 | 0.09 | 0.09 | 85 | 1013.3 |
| 20260506155746 | 61 | 162 | 13.0 | 19.0 | 0.00 | 0.09 | 0.09 | 85 | 1013.4 |
| 20260506155252 | 61 | 193 | 10.0 | 19.0 | 0.00 | 0.09 | 0.09 | 85 | 1013.3 |
| 20260506154744 | 62 | 49 | 11.0 | 18.0 | 0.00 | 0.09 | 0.09 | 84 | 1013.3 |
| 20260506154244 | 62 | 195 | 12.0 | 18.0 | 0.00 | 0.09 | 0.09 | 85 | 1013.3 |
| 20260506153740 | 62 | 207 | 9.0 | 16.0 | 0.00 | 0.09 | 0.09 | 85 | 1013.2 |
| 20260506153232 | 62 | 206 | 7.0 | 16.0 | 0.00 | 0.09 | 0.09 | 86 | 1013.3 |
| 20260506152727 | 61 | 171 | 9.0 | 15.0 | 0.00 | 0.09 | 0.09 | 86 | 1013.3 |
| 20260506152229 | 61 | 221 | 9.0 | 18.0 | 0.00 | 0.09 | 0.09 | 86 | 1013.3 |
| 20260506151724 | 61 | 213 | 10.0 | 18.0 | 0.00 | 0.09 | 0.09 | 86 | 1013.4 |
| 20260506151212 | 61 | 223 | 9.0 | 17.0 | 0.00 | 0.09 | 0.09 | 86 | 1013.4 |
| 20260506150212 | 61 | 197 | 11.0 | 16.0 | 0.00 | 0.09 | 0.09 | 86 | 1013.2 |
| 20260506145712 | 61 | 178 | 5.0 | 15.0 | 0.00 | 0.09 | 0.09 | 87 | 1013.3 |
| 20260506144211 | 60 | 197 | 12.0 | 20.0 | 0.04 | 0.09 | 0.09 | 87 | 1013.2 |
| 20260506143710 | 60 | 243 | 13.0 | 24.0 | 0.04 | 0.09 | 0.09 | 87 | 1013.4 |
| 20260506143210 | 60 | 148 | 16.0 | 24.0 | 0.04 | 0.09 | 0.09 | 86 | 1013.3 |
| 20260506142712 | 60 | 209 | 13.0 | 22.0 | 0.04 | 0.09 | 0.09 | 87 | 1013.3 |
| 20260506142210 | 60 | 210 | 13.0 | 21.0 | 0.04 | 0.09 | 0.09 | 88 | 1013.1 |
| 20260506141710 | 60 | 162 | 13.0 | 19.0 | 0.04 | 0.09 | 0.09 | 88 | 1013.3 |
| 20260506141213 | 60 | 261 | 11.0 | 20.0 | 0.04 | 0.09 | 0.09 | 88 | 1013.3 |
| 20260506140710 | 60 | 214 | 9.0 | 20.0 | 0.04 | 0.09 | 0.09 | 88 | 1013.3 |
| 20260506140211 | 60 | 244 | 6.0 | 14.0 | 0.04 | 0.09 | 0.09 | 88 | 1013.3 |
| 20260506135709 | 60 | 224 | 9.0 | 14.0 | 0.04 | 0.05 | 0.09 | 88 | 1013.3 |
| 20260506135210 | 60 | 176 | 4.0 | 17.0 | 0.04 | 0.05 | 0.09 | 87 | 1013.2 |
| 20260506134208 | 61 | 195 | 10.0 | 16.0 | 0.00 | 0.05 | 0.05 | 84 | 1013.3 |
| 20260506133715 | 61 | 233 | 8.0 | 16.0 | 0.00 | 0.05 | 0.05 | 84 | 1013.2 |
| 20260506133211 | 62 | 200 | 9.0 | 16.0 | 0.00 | 0.05 | 0.05 | 83 | 1013.3 |
| 20260506132712 | 62 | 217 | 9.0 | 16.0 | 0.00 | 0.06 | 0.05 | 84 | 1013.5 |
| 20260506132208 | 61 | 279 | 4.0 | 19.0 | 0.00 | 0.06 | 0.05 | 84 | 1013.4 |
| 20260506131208 | 61 | 234 | 14.0 | 23.0 | 0.00 | 0.06 | 0.05 | 80 | 1013.7 |
| 20260506130221 | 63 | 200 | 14.0 | 21.0 | 0.00 | 0.06 | 0.05 | 76 | 1013.7 |
| 20260506125708 | 63 | 213 | 13.0 | 23.0 | 0.00 | 0.06 | 0.05 | 75 | 1013.6 |
| 20260506125216 | 64 | 203 | 15.0 | 23.0 | 0.00 | 0.06 | 0.05 | 73 | 1013.6 |
| 20260506124708 | 64 | 133 | 12.0 | 29.0 | 0.00 | 0.06 | 0.05 | 72 | 1013.6 |
| 20260506124212 | 64 | 200 | 15.0 | 29.0 | 0.00 | 0.06 | 0.05 | 71 | 1013.6 |
| 20260506123707 | 65 | 262 | 18.0 | 28.0 | 0.00 | 0.06 | 0.05 | 69 | 1013.7 |
| 20260506123207 | 65 | 250 | 9.0 | 29.0 | 0.00 | 0.06 | 0.05 | 68 | 1013.6 |
| 20260506122721 | 65 | 216 | 15.0 | 29.0 | 0.00 | 0.06 | 0.05 | 69 | 1013.7 |
| 20260506122207 | 65 | 173 | 20.0 | 28.0 | 0.00 | 0.07 | 0.05 | 68 | 1013.7 |
| 20260506121706 | 64 | 243 | 18.0 | 29.0 | 0.00 | 0.07 | 0.05 | 68 | 1013.7 |
| 20260506121208 | 65 | 217 | 13.0 | 29.0 | 0.00 | 0.07 | 0.05 | 71 | 1013.6 |
| 20260506120708 | 64 | 199 | 12.0 | 26.0 | 0.00 | 0.08 | 0.05 | 69 | 1013.6 |
| 20260506120201 | 64 | 219 | 17.0 | 26.0 | 0.00 | 0.08 | 0.05 | 69 | 1013.6 |
| 20260506115154 | 65 | 217 | 11.0 | 24.0 | 0.00 | 0.08 | 0.05 | 68 | 1013.6 |
| 20260506114647 | 65 | 169 | 11.0 | 19.0 | 0.00 | 0.08 | 0.05 | 70 | 1013.6 |
| 20260506114139 | 64 | 207 | 8.0 | 31.0 | 0.00 | 0.08 | 0.05 | 70 | 1013.6 |
| 20260506113636 | 64 | 204 | 18.0 | 31.0 | 0.00 | 0.09 | 0.05 | 70 | 1013.7 |
| 20260506113137 | 64 | 200 | 13.0 | 24.0 | 0.00 | 0.09 | 0.05 | 70 | 1013.6 |
| 20260506112649 | 64 | 223 | 12.0 | 23.0 | 0.00 | 0.09 | 0.05 | 69 | 1013.6 |
| 20260506112135 | 64 | 197 | 17.0 | 23.0 | 0.00 | 0.09 | 0.05 | 68 | 1013.5 |
| 20260506111625 | 64 | 216 | 10.0 | 26.0 | 0.00 | 0.09 | 0.05 | 69 | 1013.4 |
| 20260506111122 | 64 | 227 | 14.0 | 28.0 | 0.00 | 0.09 | 0.05 | 71 | 1013.5 |
| 20260506110631 | 63 | 203 | 12.0 | 28.0 | 0.00 | 0.09 | 0.05 | 71 | 1013.6 |
| 20260506110128 | 63 | 221 | 20.0 | 30.0 | 0.00 | 0.09 | 0.05 | 72 | 1013.7 |
| 20260506105610 | 63 | 213 | 19.0 | 30.0 | 0.00 | 0.09 | 0.05 | 73 | 1013.7 |
| 20260506105107 | 63 | 171 | 12.0 | 28.0 | 0.00 | 0.09 | 0.05 | 71 | 1013.7 |
| 20260506104612 | 62 | 204 | 17.0 | 28.0 | 0.00 | 0.09 | 0.05 | 71 | 1013.8 |
| 20260506104106 | 63 | 228 | 15.0 | 23.0 | 0.00 | 0.10 | 0.05 | 71 | 1013.8 |
| 20260506103614 | 63 | 219 | 13.0 | 27.0 | 0.00 | 0.10 | 0.05 | 71 | 1013.8 |
| 20260506103103 | 63 | 231 | 13.0 | 27.0 | 0.00 | 0.11 | 0.05 | 71 | 1013.7 |
| 20260506102603 | 63 | 190 | 14.0 | 26.0 | 0.00 | 0.12 | 0.05 | 71 | 1013.7 |
| 20260506102108 | 63 | 192 | 14.0 | 26.0 | 0.00 | 0.12 | 0.05 | 71 | 1013.8 |
| 20260506101553 | 63 | 161 | 14.0 | 30.0 | 0.00 | 0.12 | 0.05 | 69 | 1013.8 |
| 20260506100551 | 63 | 210 | 16.0 | 27.0 | 0.00 | 0.12 | 0.05 | 70 | 1013.8 |
| 20260506095612 | 62 | 226 | 21.0 | 29.0 | 0.00 | 0.12 | 0.05 | 71 | 1013.9 |
| 20260506094543 | 62 | 180 | 14.0 | 20.0 | 0.00 | 0.13 | 0.05 | 74 | 1013.8 |
| 20260506094044 | 62 | 233 | 8.0 | 20.0 | 0.00 | 0.13 | 0.05 | 75 | 1013.7 |
| 20260506093536 | 62 | 226 | 8.0 | 19.0 | 0.00 | 0.13 | 0.05 | 75 | 1013.7 |
| 20260506093032 | 61 | 227 | 11.0 | 20.0 | 0.00 | 0.13 | 0.05 | 75 | 1013.7 |
| 20260506092541 | 61 | 162 | 13.0 | 20.0 | 0.00 | 0.13 | 0.05 | 76 | 1013.7 |
| 20260506092031 | 62 | 149 | 7.0 | 11.0 | 0.00 | 0.14 | 0.05 | 79 | 1013.8 |
| 20260506091604 | 62 | 123 | 4.0 | 13.0 | 0.00 | 0.15 | 0.05 | 81 | 1013.8 |
| 20260506090542 | 60 | 216 | 6.0 | 10.0 | 0.00 | 0.15 | 0.05 | 80 | 1014.0 |
| 20260506085506 | 60 | 231 | 5.0 | 12.0 | 0.00 | 0.17 | 0.05 | 82 | 1013.8 |
| 20260506084502 | 59 | 121 | 6.0 | 11.0 | 0.00 | 0.17 | 0.05 | 81 | 1013.8 |
| 20260506084008 | 59 | 157 | 6.0 | 10.0 | 0.00 | 0.18 | 0.05 | 81 | 1013.9 |